Overview Statistics Trail Chart Weather Telemetry Raw packets
 

This is the latest recevied weather packets stored in our database for station/object ea1bqo-1. If no packets are shown the sender has not sent any weather packets the latest 10 day(s).

<< 54 55 56 57 58 59 60 >>
Time Temp. Humidity Pressure Rain* Wind** Luminosity Snow
1787861636 12.22° C 91% 1013 hPa 0 mm - - -
1787861096 12.22° C 90% 1012.6 hPa 0 mm - - -
1787860556 12.22° C 90% 1012.5 hPa 0 mm - - -
1787860016 12.22° C 90% 1012.5 hPa 0 mm - - -
1787859476 12.22° C 89% 1012.2 hPa 0 mm - - -
1787858936 12.22° C 88% 1011.9 hPa 0 mm - - -
1787858396 12.78° C 89% 1011.7 hPa 0 mm - - -
1787857856 12.78° C 88% 1011.6 hPa 0 mm - - -
1787857316 12.78° C 88% 1011.4 hPa 0 mm - - -
1787856776 12.78° C 88% 1011.3 hPa 0 mm - - -
1787856236 12.78° C 88% 1011 hPa 0 mm - - -
1787855696 12.78° C 89% 1011.1 hPa 0 mm - - -
1787855156 12.22° C 90% 1010.9 hPa 0 mm - - -
1787854616 12.22° C 90% 1010.8 hPa 0 mm - - -
1787854076 12.78° C 90% 1010.7 hPa 0 mm - - -
1787853536 12.78° C 90% 1010.8 hPa 0 mm - - -
1787852996 12.78° C 90% 1010.7 hPa 0 mm - - -
1787852456 12.78° C 90% 1010.5 hPa 0 mm - - -
1787851916 12.78° C 89% 1010.4 hPa 0 mm - - -
1787851376 12.78° C 89% 1010.3 hPa 0 mm - - -
1787850836 13.33° C 86% 1009.8 hPa 0 mm - - -
1787850296 13.33° C 81% 1009.6 hPa 0.25 mm - - -
1787849756 14.44° C 79% 1009.5 hPa 0.25 mm - - -
1787849216 15° C 81% 1009.1 hPa 0.25 mm - - -
1787848676 15° C 81% 1008.9 hPa 0.25 mm - - -

* Rain latest hour (hover to see other rain measurements)
** Current wind speed in m/s (hover to see current wind gust speed)